Satellite: GO-32
Catalog number: 25397
Epoch time:      08297.77223891
Element set:     729
Inclination:      098.3523 deg
RA of node:       326.5081 deg
Eccentricity:    0.0000732
Arg of perigee:   176.0345 deg
Mean anomaly:     184.0846 deg
Mean motion:   14.23149653 rev/day
Decay rate:        2.0e-08 rev/day^2
Epoch rev:           53450
Checksum:              307

Satellite: NO-44
Catalog number: 26931
Epoch time:      08297.59944377
Element set:       8
Inclination:      067.0526 deg
RA of node:       313.8482 deg
Eccentricity:    0.0007069
Arg of perigee:   258.4544 deg
Mean anomaly:     101.5760 deg
Mean motion:   14.29535838 rev/day
Decay rate:      -1.70e-06 rev/day^2
Epoch rev:           36876
Checksum:              337

Satellite: SO-50
Catalog number: 27607
Epoch time:      08297.53249494
Element set:     729
Inclination:      064.5602 deg
RA of node:       023.8453 deg
Eccentricity:    0.0085366
Arg of perigee:   254.5658 deg
Mean anomaly:     104.6000 deg
Mean motion:   14.71388838 rev/day
Decay rate:        3.5e-07 rev/day^2
Epoch rev:           31385
Checksum:              323

Satellite: CO-55
Catalog number: 27844
Epoch time:      08296.49762961
Element set:    0423
Inclination:      098.7168 deg
RA of node:       303.0098 deg
Eccentricity:    0.0010629
Arg of perigee:   106.7841 deg
Mean anomaly:     253.4501 deg
Mean motion:   14.20601761 rev/day
Decay rate:        1.1e-07 rev/day^2
Epoch rev:           27551
Checksum:              301

Satellite: CO-57
Catalog number: 27848
Epoch time:      08296.01979410
Element set:    0375
Inclination:      098.7176 deg
RA of node:       301.6141 deg
Eccentricity:    0.0010342
Arg of perigee:   111.2207 deg
Mean anomaly:     249.0053 deg
Mean motion:   14.20409272 rev/day
Decay rate:        1.4e-07 rev/day^2
Epoch rev:           27541
Checksum:              279

Satellite: AO-51
Catalog number: 28375
Epoch time:      08296.56894471
Element set:     227
Inclination:      098.0645 deg
RA of node:       313.9388 deg
Eccentricity:    0.0084303
Arg of perigee:   125.6358 deg
Mean anomaly:     235.2724 deg
Mean motion:   14.40621460 rev/day
Decay rate:        7.0e-08 rev/day^2
Epoch rev:           22674
Checksum:              319

Satellite: CO-56
Catalog number: 28941
Epoch time:      08297.81725096
Element set:     487
Inclination:      098.1183 deg
RA of node:       066.8187 deg
Eccentricity:    0.0144453
Arg of perigee:   291.7468 deg
Mean anomaly:     066.8447 deg
Mean motion:   15.63221857 rev/day
Decay rate:     2.4926e-04 rev/day^2
Epoch rev:           15009
Checksum:              363

Satellite: CP3
Catalog number: 31128
Epoch time:      08296.61685571
Element set:    0464
Inclination:      098.0241 deg
RA of node:       354.5705 deg
Eccentricity:    0.0101881
Arg of perigee:   301.1673 deg
Mean anomaly:     057.9580 deg
Mean motion:   14.51983675 rev/day
Decay rate:       -4.8e-07 rev/day^2
Epoch rev:           08042
Checksum:              309

Satellite: CP4
Catalog number: 31132
Epoch time:      08296.64668180
Element set:    0447
Inclination:      098.0292 deg
RA of node:       357.3899 deg
Eccentricity:    0.0084646
Arg of perigee:   293.0692 deg
Mean anomaly:     066.1578 deg
Mean motion:   14.55150278 rev/day
Decay rate:       -6.7e-07 rev/day^2
Epoch rev:           08048
Checksum:              341

Satellite: CO-65
Catalog number: 32785
Epoch time:      08297.72605516
Element set:     190
Inclination:      097.9793 deg
RA of node:       357.2305 deg
Eccentricity:    0.0016234
Arg of perigee:   079.9750 deg
Mean anomaly:     280.3290 deg
Mean motion:   14.81404509 rev/day
Decay rate:       -4.0e-08 rev/day^2
Epoch rev:            2643
Checksum:              318

/EX
SB KEPS @ AMSAT  $ORB08297.W
Orbital Elements  08297.WEATHER

HR AMSAT ORBITAL ELEMENTS FOR WEATHER SATELLITES
FROM WA5QGD FORT WORTH,TX October 23, 2008
Send Subscribe/unsubscribe to KEPS at 
http://www.amsat.org/mailman/listinfo/keps
BID: ORB08297.W
TO ALL RADIO AMATEURS BT

Satellite: NOAA-10
Catalog number: 16969
Epoch time:      08296.52426254
Element set:    0337
Inclination:      098.7151 deg
RA of node:       318.1990 deg
Eccentricity:    0.0012389
Arg of perigee:   166.6880 deg
Mean anomaly:     193.4639 deg
Mean motion:   14.27370883 rev/day
Decay rate:        5.0e-08 rev/day^2
Epoch rev:           14960
Checksum:              335

Satellite: NOAA-11
Catalog number: 19531
Epoch time:      08296.31710188
Element set:    0368
Inclination:      098.7946 deg
RA of node:       023.8490 deg
Eccentricity:    0.0012309
Arg of perigee:   067.7343 deg
Mean anomaly:     292.5173 deg
Mean motion:   14.14879577 rev/day
Decay rate:       -7.2e-07 rev/day^2
Epoch rev:           03588
Checksum:              333

Satellite: NOAA-12
Catalog number: 21263
Epoch time:      08296.94481048
Element set:    0902
Inclination:      098.7725 deg
RA of node:       298.9203 deg
Eccentricity:    0.0013239
Arg of perigee:   112.4011 deg
Mean anomaly:     247.8572 deg
Mean motion:   14.25550773 rev/day
Decay rate:        1.8e-07 rev/day^2
Epoch rev:           90659
Checksum:              313

